DELTA 1 DEB, 10867

Orbit data source: Space-Track

DELTA 1 DEB, 10867 is space debris in SSO originally from a launch on Thu, 29 Jul 1976 UTC launched from the Air Force Western Test Range (AFWTR). Debris objects in space refer to the collection of defunct objects orbiting the Earth. Examples of debris include non-operational satellites, rocket bodies, and fragments generated from explosions, collisions, or faulty payload assembly.

Loading next visibility...
Identifier
10867, 1976-077CV
Orbit
SSO
Country
Flag of USUS
Related business
Manufacturer
Unknown
Mission
Spacecraft
Bus & Motor
Unknown
Mass
Unknown
Launch date (UTC)
1976-07-29 (49 years ago)
Launch vehicle
Unknown
Launch site
Air Force Western Test Range (AFWTR)
Object type
Payload
Rocket body
Debris
Shape & HBR
Unknown shape, 0.1 m
Radar Cross Section
Small (<0.1 m²)

Expand to show TLE details & history
Last TLE update: 1 day ago

TLE from 1 day ago
0 DELTA 1 DEB
1 10867U 76077CV  25300.94391074  .00001796  00000-0  43727-2 0  9994
2 10867 101.8060 283.4610 0404956  25.0205  36.6014 12.97266036286947
Epoch: 2025-10-27T22:39Z
TLE epoch observation values (Epoch: 2025-10-27T22:39:13.887Z)
Latitude
62.16473°
Longitude
-116.07618°
Altitude
1,039.211 km
Speed
7.454 km/s
True Right ascension
17h 21m 04s
True Declination
62° 01' 40"
Sunlit
Object was in daylight at epoch
Visualization orbit readout
Latitude
Unknown
Longitude
Unknown
Altitude
Unknown
Speed
Unknown
Apparent Right ascension
Unknown
Apparent Declination
Unknown
Sunlit
N/A
Visualization observer readout
Local Sidereal Time
19:10:29
Azimuth
Unknown
Elevation
Unknown
Doppler factor
Unknown
Orbital elements
Apogee altitude
1,580.031 km
Perigee altitude
960.575 km
Semi-major axis
7,648.44 km
Eccentricity
0.0405
Inclination
101.806°
RAAN
283.461°
Arg. of periapsis
25.0205°
True anomaly
39.48401°
Mean anomaly
36.6014°
Eccentric anomaly
38.03086°
Mean motion
3.24477 °/min
Orbital period
110.95 mins
BSTAR
0.0043727
Loading maneuver chart data...
Computing Atmospheric mass density...
Loading historical data...
Loading historical data...
Loading historical data...
Loading historical data...
Loading historical data...
Loading historical data...
Loading historical data...

Documentation

Showing up to 5 results
|